OE5WWO Weather Reports


time (UTC)temp
F
wind
direction
speed
knots
gust
knots
rain 1hr
in
rain 24hr
in
rain mn
in
humidity
%
barometer
mb
20260502163540 75 61 0.9 5.2 0.00 0.00 0.00 19 1018.2
20260502163056 75 88 2.6 5.2 0.00 0.00 0.00 19 1018.3
20260502162540 75 55 0.9 6.1 0.00 0.00 0.00 20 1018.4
20260502162040 76 67 1.7 7.0 0.00 0.00 0.00 21 1018.4
20260502161553 76 78 0.9 7.0 0.00 0.00 0.00 21 1018.5
20260502161040 76 72 1.7 7.0 0.00 0.00 0.00 23 1018.5
20260502160540 76 59 0.0 5.2 0.00 0.00 0.00 23 1018.5
20260502152041 77 0 1.7 5.2 0.00 0.00 0.00 25 1019.1
20260502151601 77 63 0.9 4.3 0.00 0.00 0.00 25 1019.1
20260502151042 77 38 1.7 4.3 0.00 0.00 0.00 26 1019.2
20260502150540 77 132 0.9 7.0 0.00 0.00 0.00 24 1019.2
20260502130541 77 103 1.7 9.6 0.00 0.00 0.00 20 1020.7
20260502123540 77 95 0.9 7.0 0.00 0.00 0.00 21 1021.2
20260502123050 76 107 0.9 10.4 0.00 0.00 0.00 24 1021.2
20260502122540 76 87 1.7 10.4 0.00 0.00 0.00 26 1021.4
20260502122040 76 88 2.6 9.6 0.00 0.00 0.00 22 1021.4
20260502121554 76 69 2.6 9.6 0.00 0.00 0.00 23 1021.5
20260502121039 75 63 1.7 9.6 0.00 0.00 0.00 23 1021.6
20260502120541 75 108 0.9 8.7 0.00 0.00 0.00 27 1021.6
20260502120104 74 73 1.7 8.7 0.00 0.00 0.00 26 1021.6
20260502115541 74 102 3.5 8.7 0.00 0.00 0.00 28 1021.7
20260502115042 75 89 1.7 8.7 0.00 0.00 0.00 30 1021.7
20260502114555 74 61 2.6 7.0 0.00 0.00 0.00 28 1021.8
20260502114040 74 115 0.9 8.7 0.00 0.00 0.00 29 1021.8
20260502113540 74 36 2.6 8.7 0.00 0.00 0.00 31 1021.9
20260502113049 74 72 2.6 8.7 0.00 0.00 0.00 29 1021.9
20260502112539 75 144 1.7 8.7 0.00 0.00 0.00 31 1022.1
20260502112040 74 88 0.9 8.7 0.00 0.00 0.00 33 1022.0
20260502111558 74 128 0.9 10.4 0.00 0.00 0.00 34 1022.2
20260502111039 73 71 2.6 10.4 0.00 0.00 0.00 33 1022.3
20260502110540 73 65 0.0 7.0 0.00 0.00 0.00 36 1022.2
20260502110050 73 144 2.6 7.0 0.00 0.00 0.00 35 1022.3
20260502105541 73 101 0.9 8.7 0.00 0.00 0.00 33 1022.3
20260502105041 73 62 2.6 8.7 0.00 0.00 0.00 35 1022.4
20260502104553 73 67 0.9 7.8 0.00 0.00 0.00 35 1022.4
20260502104040 72 57 1.7 7.8 0.00 0.00 0.00 35 1022.6
20260502103548 72 88 1.7 7.0 0.00 0.00 0.00 37 1022.7
20260502103048 73 130 1.7 7.8 0.00 0.00 0.00 36 1022.8
20260502102538 72 321 0.9 7.8 0.00 0.00 0.00 37 1022.8
20260502102037 72 86 2.6 9.6 0.00 0.00 0.00 37 1022.9
20260502101548 72 105 1.7 9.6 0.00 0.00 0.00 41 1022.9
20260502101038 72 76 1.7 4.3 0.00 0.00 0.00 38 1023.1
20260502100536 71 81 0.9 3.5 0.00 0.00 0.00 40 1023.2
20260502091036 69 64 1.7 7.8 0.00 0.00 0.00 41 1024.0
20260502090536 68 44 0.9 8.7 0.00 0.00 0.00 46 1023.9
20260502071040 58 121 0.9 2.6 0.00 0.00 0.00 65 1024.9
20260502070541 58 94 0.9 2.6 0.00 0.00 0.00 65 1025.0
20260502070051 57 0 0.0 2.6 0.00 0.00 0.00 66 1025.0
20260502065540 57 71 0.9 2.6 0.00 0.00 0.00 65 1025.0
20260502065039 57 5 0.9 1.7 0.00 0.00 0.00 67 1025.1
20260502064603 56 70 0.0 1.7 0.00 0.00 0.00 66 1025.1
20260502064039 56 77 0.9 1.7 0.00 0.00 0.00 67 1025.2
20260502063539 55 0 0.0 1.7 0.00 0.00 0.00 67 1025.2
20260502063047 55 0 0.0 1.7 0.00 0.00 0.00 67 1025.2
20260502062544 54 77 0.0 1.7 0.00 0.00 0.00 68 1025.2
20260502062039 54 77 0.0 1.7 0.00 0.00 0.00 68 1025.3
20260502061548 53 77 0.0 1.7 0.00 0.00 0.00 69 1025.3
20260502061043 53 0 0.0 2.6 0.00 0.00 0.00 70 1025.4
20260502060540 53 0 0.0 2.6 0.00 0.00 0.00 71 1025.4
20260502060046 52 67 0.9 2.6 0.00 0.00 0.00 71 1025.3
20260502055543 51 0 0.0 0.9 0.00 0.00 0.00 73 1025.4
20260502055041 50 0 0.0 0.9 0.00 0.00 0.00 75 1025.5
20260502054548 49 0 0.0 0.0 0.00 0.00 0.00 76 1025.5
20260502054044 49 0 0.0 0.0 0.00 0.00 0.00 75 1025.6
20260502053540 48 0 0.0 0.0 0.00 0.00 0.00 76 1025.6
20260502053047 48 0 0.0 0.0 0.00 0.00 0.00 77 1025.5
20260502052540 47 0 0.0 0.0 0.00 0.00 0.00 78 1025.6
20260502052038 47 0 0.0 0.0 0.00 0.00 0.00 79 1025.6
20260502051617 47 0 0.0 0.9 0.00 0.00 0.00 82 1025.6
20260502051040 46 0 0.0 0.9 0.00 0.00 0.00 83 1025.5
20260502050540 46 313 0.0 0.9 0.00 0.00 0.00 85 1025.5
20260502050047 46 0 0.0 0.9 0.00 0.00 0.00 86 1025.4
20260502045539 45 0 0.0 0.9 0.00 0.00 0.00 86 1025.4
20260502045040 45 0 0.0 0.9 0.00 0.00 0.00 87 1025.3
20260502044554 44 0 0.0 0.9 0.00 0.00 0.00 87 1025.4
20260502044039 44 0 0.0 0.0 0.00 0.00 0.00 87 1025.3
20260502043539 43 0 0.0 0.0 0.00 0.00 0.00 87 1025.3
20260502043053 43 0 0.0 0.0 0.00 0.00 0.00 86 1025.2
20260502042539 43 0 0.0 0.0 0.00 0.00 0.00 86 1025.3
20260502042039 43 0 0.0 0.0 0.00 0.00 0.00 86 1025.4
20260502041549 43 0 0.0 0.0 0.00 0.00 0.00 86 1025.4
20260502041039 43 0 0.0 0.0 0.00 0.00 0.00 85 1025.3
20260502040540 43 0 0.0 0.0 0.00 0.00 0.00 85 1025.3
20260502040050 43 0 0.0 0.0 0.00 0.00 0.00 85 1025.3
20260502035543 43 0 0.0 0.0 0.00 0.00 0.00 85 1025.3
20260502035040 43 0 0.0 0.0 0.00 0.00 0.00 85 1025.3
20260502034547 43 0 0.0 0.0 0.00 0.00 0.00 84 1025.2
20260502034041 43 0 0.0 0.0 0.00 0.00 0.00 85 1025.2
20260502033540 43 0 0.0 0.0 0.00 0.00 0.00 85 1025.1
20260502033056 43 0 0.0 0.0 0.00 0.00 0.00 85 1025.1
20260502032539 43 0 0.0 0.0 0.00 0.00 0.00 84 1025.2
20260502032039 43 0 0.0 0.0 0.00 0.00 0.00 84 1025.2
20260502031608 43 0 0.0 0.0 0.00 0.00 0.00 83 1025.2
20260502031040 43 0 0.0 0.0 0.00 0.00 0.00 83 1025.3
20260502030541 44 0 0.0 0.0 0.00 0.00 0.00 83 1025.3
20260502030050 44 0 0.0 0.0 0.00 0.00 0.00 83 1025.3
20260502025539 44 0 0.0 0.0 0.00 0.00 0.00 83 1025.4
20260502025040 44 0 0.0 0.0 0.00 0.00 0.00 82 1025.5
20260502024553 44 0 0.0 0.0 0.00 0.00 0.00 83 1025.5
20260502024040 44 0 0.0 0.0 0.00 0.00 0.00 83 1025.4
20260502023540 44 0 0.0 0.0 0.00 0.00 0.00 83 1025.3
20260502023050 44 0 0.0 0.0 0.00 0.00 0.00 83 1025.3
20260502022540 44 0 0.0 0.0 0.00 0.00 0.00 82 1025.3
20260502022039 45 0 0.0 0.0 0.00 0.00 0.00 82 1025.3
20260502021556 45 0 0.0 0.0 0.00 0.00 0.00 82 1025.4
20260502021039 45 0 0.0 0.0 0.00 0.00 0.00 82 1025.3
20260502020543 45 0 0.0 0.0 0.00 0.00 0.00 82 1025.4
20260502015539 45 0 0.0 0.0 0.00 0.00 0.00 81 1025.5
20260502015041 45 0 0.0 0.0 0.00 0.00 0.00 81 1025.5
20260502014546 46 0 0.0 0.0 0.00 0.00 0.00 81 1025.5
20260502014039 46 0 0.0 0.0 0.00 0.00 0.00 81 1025.5
20260502013542 46 0 0.0 0.0 0.00 0.00 0.00 81 1025.6
20260502013049 46 0 0.0 0.0 0.00 0.00 0.00 81 1025.5
20260502012543 46 0 0.0 0.0 0.00 0.00 0.00 81 1025.6
20260502012040 46 0 0.0 0.0 0.00 0.00 0.00 81 1025.6
20260502011551 46 0 0.0 0.0 0.00 0.00 0.00 80 1025.6
20260502011036 46 0 0.0 0.0 0.00 0.00 0.00 80 1025.7
20260502010537 47 0 0.0 0.0 0.00 0.00 0.00 79 1025.8
20260502010055 47 0 0.0 0.0 0.00 0.00 0.00 79 1025.8
20260502005536 47 0 0.0 0.0 0.00 0.00 0.00 79 1025.8
20260502005037 47 0 0.0 0.0 0.00 0.00 0.00 80 1025.8
20260502004547 47 0 0.0 0.0 0.00 0.00 0.00 80 1025.8
20260502004040 47 0 0.0 0.0 0.00 0.00 0.00 79 1025.8
20260502003535 47 0 0.0 0.0 0.00 0.00 0.00 79 1025.9
20260502003050 47 0 0.0 0.0 0.00 0.00 0.00 78 1025.8
20260502002535 47 0 0.0 0.0 0.00 0.00 0.00 78 1025.9
20260502002040 47 0 0.0 0.0 0.00 0.00 0.00 77 1025.9
20260502001549 47 0 0.0 0.0 0.00 0.00 0.00 77 1025.9
20260502001037 47 0 0.0 0.0 0.00 0.00 0.00 76 1025.9
20260502000536 48 0 0.0 0.0 0.00 0.00 0.00 76 1026.0
20260502000053 48 0 0.0 0.0 0.00 0.00 0.00 76 1026.1
20260501235541 48 0 0.0 0.0 0.00 0.00 0.00 75 1026.1
20260501235036 48 0 0.0 0.0 0.00 0.00 0.00 74 1026.1
20260501234555 48 0 0.0 0.0 0.00 0.00 0.00 74 1026.1
20260501234036 48 0 0.0 0.0 0.00 0.00 0.00 74 1026.2
20260501233536 48 0 0.0 0.0 0.00 0.00 0.00 73 1026.2
20260501233054 49 0 0.0 0.0 0.00 0.00 0.00 73 1026.2
20260501232536 49 0 0.0 0.0 0.00 0.00 0.00 71 1026.2
20260501232040 49 0 0.0 0.0 0.00 0.00 0.00 71 1026.1
20260501231555 49 0 0.0 0.0 0.00 0.00 0.00 71 1026.3
20260501231038 49 0 0.0 0.0 0.00 0.00 0.00 71 1026.2
20260501230536 49 0 0.0 0.0 0.00 0.00 0.00 71 1026.3
20260501230054 49 0 0.0 0.0 0.00 0.00 0.00 70 1026.3
20260501225539 49 0 0.0 0.0 0.00 0.00 0.00 69 1026.3
20260501225037 50 0 0.0 0.0 0.00 0.00 0.00 68 1026.3
20260501224554 50 0 0.0 0.0 0.00 0.00 0.00 68 1026.3
20260501224036 50 0 0.0 0.0 0.00 0.00 0.00 67 1026.3
20260501223537 50 0 0.0 0.0 0.00 0.00 0.00 67 1026.3
20260501223047 50 0 0.0 0.0 0.00 0.00 0.00 67 1026.3
20260501222536 51 0 0.0 0.0 0.00 0.00 0.00 66 1026.4
20260501222036 51 0 0.0 0.0 0.00 0.00 0.00 66 1026.3
20260501221550 51 0 0.0 0.0 0.00 0.00 0.00 66 1026.3
20260501221057 51 0 0.0 0.0 0.00 0.00 0.00 66 1026.3
20260501220540 51 0 0.0 0.0 0.00 0.00 0.00 65 1026.4
20260501220055 51 0 0.0 0.0 0.00 0.00 0.00 64 1026.3
20260501215541 52 0 0.0 0.0 0.00 0.00 0.00 64 1026.3
20260501215040 52 0 0.0 0.9 0.00 0.00 0.00 64 1026.3
20260501214602 52 0 0.0 0.9 0.00 0.00 0.00 64 1026.2
20260501214040 52 0 0.0 0.0 0.00 0.00 0.00 63 1026.3
20260501213539 53 0 0.0 0.0 0.00 0.00 0.00 63 1026.2
20260501213100 53 0 0.0 0.9 0.00 0.00 0.00 62 1026.3
20260501212539 53 0 0.0 0.9 0.00 0.00 0.00 62 1026.2
20260501212039 53 0 0.0 2.6 0.00 0.00 0.00 61 1026.2
20260501211552 53 0 0.0 2.6 0.00 0.00 0.00 61 1026.1
20260501211040 53 305 0.0 2.6 0.00 0.00 0.00 61 1026.2
20260501210540 54 0 0.0 1.7 0.00 0.00 0.00 61 1026.2
20260501210051 54 302 0.0 1.7 0.00 0.00 0.00 60 1026.2
20260501205540 54 0 0.0 1.7 0.00 0.00 0.00 59 1026.2
20260501205040 54 0 0.0 1.7 0.00 0.00 0.00 59 1026.3
20260501204553 54 302 0.0 0.9 0.00 0.00 0.00 59 1026.3
20260501204040 55 0 0.0 0.9 0.00 0.00 0.00 58 1026.3
20260501203539 55 0 0.0 0.9 0.00 0.00 0.00 58 1026.2
20260501203058 55 0 0.0 1.7 0.00 0.00 0.00 58 1026.3
20260501202539 55 0 0.0 2.6 0.00 0.00 0.00 58 1026.3
20260501202040 55 0 0.0 3.5 0.00 0.00 0.00 58 1026.3
20260501201555 55 0 0.9 3.5 0.00 0.00 0.00 58 1026.3
20260501201040 56 0 0.0 2.6 0.00 0.00 0.00 58 1026.2
20260501200540 56 320 0.0 2.6 0.00 0.00 0.00 58 1026.2
20260501200048 56 295 0.0 1.7 0.00 0.00 0.00 57 1026.3
20260501195538 56 0 0.0 2.6 0.00 0.00 0.00 57 1026.2
20260501195038 56 309 0.0 2.6 0.00 0.00 0.00 57 1026.1
20260501194558 57 0 0.0 2.6 0.00 0.00 0.00 56 1026.2
20260501194038 57 0 0.0 1.7 0.00 0.00 0.00 56 1026.2
20260501193540 57 273 0.0 1.7 0.00 0.00 0.00 56 1026.3
20260501193055 57 0 0.0 2.6 0.00 0.00 0.00 56 1026.1
20260501192541 58 0 0.0 2.6 0.00 0.00 0.00 55 1026.0
20260501192040 58 310 0.0 2.6 0.00 0.00 0.00 55 1026.1
20260501191554 58 304 0.0 1.7 0.00 0.00 0.00 55 1026.2
20260501191041 59 0 0.0 1.7 0.00 0.00 0.00 54 1026.1
20260501190541 59 323 0.0 0.9 0.00 0.00 0.00 53 1026.1
20260501190114 59 0 0.0 0.0 0.00 0.00 0.00 52 1026.1
20260501185538 60 0 0.0 0.9 0.00 0.00 0.00 52 1026.0
20260501185038 60 0 0.0 2.6 0.00 0.00 0.00 51 1026.0
20260501184550 60 0 0.0 2.6 0.00 0.00 0.00 50 1026.0
20260501184038 61 308 0.0 1.7 0.00 0.00 0.00 49 1025.9
20260501183542 61 0 0.0 0.0 0.00 0.00 0.00 49 1025.9
20260501183051 62 0 0.0 0.9 0.00 0.00 0.00 48 1025.8
20260501182538 62 0 0.0 0.9 0.00 0.00 0.00 46 1025.8
20260501182040 63 0 0.0 0.9 0.00 0.00 0.00 45 1025.7
20260501181553 63 0 0.0 0.0 0.00 0.00 0.00 44 1025.6
20260501181040 64 0 0.0 0.0 0.00 0.00 0.00 43 1025.6
20260501180540 64 0 0.0 0.9 0.00 0.00 0.00 42 1025.5
20260501180054 64 0 0.0 0.9 0.00 0.00 0.00 41 1025.5
20260501175541 65 0 0.0 0.9 0.00 0.00 0.00 41 1025.5
20260501175040 65 164 0.0 0.9 0.00 0.00 0.00 41 1025.5
20260501174601 65 0 0.0 1.7 0.00 0.00 0.00 40 1025.3
20260501174040 65 0 0.0 1.7 0.00 0.00 0.00 40 1025.3
20260501173544 66 0 0.0 2.6 0.00 0.00 0.00 40 1025.2
20260501173102 66 0 0.0 2.6 0.00 0.00 0.00 40 1025.2
20260501172538 66 162 0.9 2.6 0.00 0.00 0.00 40 1025.1
20260501172040 66 0 0.0 1.7 0.00 0.00 0.00 40 1025.1
20260501171559 66 177 0.0 2.6 0.00 0.00 0.00 39 1025.0
20260501171041 66 0 0.0 3.5 0.00 0.00 0.00 39 1025.0
20260501170537 67 0 0.9 3.5 0.00 0.00 0.00 39 1025.0
20260501170054 67 209 0.0 2.6 0.00 0.00 0.00 38 1025.1
20260501165541 67 0 0.0 2.6 0.00 0.00 0.00 39 1025.1
20260501165041 67 74 0.0 2.6 0.00 0.00 0.00 38 1025.1
20260501164554 67 59 0.9 2.6 0.00 0.00 0.00 38 1025.1
20260501164039 67 69 0.9 2.6 0.00 0.00 0.00 38 1025.2